Weather History for Monticello, AR

Change the Weather History Date:

Wednesday, July 17, 2013

  Actual Average Record
Temperature  
Mean Temperature 82 °F -  
Max Temperature 95 °F 92 °F 106 °F (1980)
Min Temperature 71 °F 68 °F 58 °F (1960)
Cooling Degree Days 17    
Growing Degree Days 32 (Base 50)    
Moisture  
Dew Point 70 °F    
Average Humidity 68    
Maximum Humidity 93    
Minimum Humidity 41    
Precipitation  
Precipitation 0.00 in - - ()
Sea Level Pressure  
Sea Level Pressure 30.21 in    
Wind  
Wind Speed 3 mph (ENE)    
Max Wind Speed 10 mph    
Max Gust Speed 20 mph    
Visibility 10 miles    
Events      
Averages and records for this station are not official NWS values.
T = Trace of Precipitation, MM = Missing Value Source: NWS Daily Summary

Daily Weather History Graph

Daily Weather History Graph

Search for Another Location

Airport:

Trip Planner

Search our weather history database for the weather conditions in past years. The results will help you decide how hot, cold, wet, or windy it might be!

Date:

Astronomy

Jul. 17, 2013 Rise Set
Actual Time 6:09 AM CDT 8:16 PM CDT
Civil Twilight 5:40 AM CDT 8:45 PM CDT
Nautical Twilight 5:06 AM CDT 9:19 PM CDT
Astronomical Twilight 4:29 AM CDT 9:56 PM CDT
Moon 3:10 PM CDT (7/17) 1:10 AM CDT (7/17)
Length of Visible Light 15h 04m
Length of Day
14h 07m
Waxing Gibbous, 67% of the Moon is Illuminated
Jul 17
Waxing Gibbous
Jul 22
Full
Jul 29
Last Quarter
Aug 6
New
Aug 14
First Quarter

Hourly Weather History & Observations

Time (CDT) Temp. Heat Index Dew Point Humidity Pressure Visibility Wind Dir Wind Speed Gust Speed Precip Events Conditions
12:53 AM 75.9 °F - 70.0 °F 82% 30.22 in 10.0 mi Calm Calm - N/A   Clear
1:53 AM 73.9 °F - 70.0 °F 87% 30.22 in 10.0 mi ENE 3.5 mph - N/A   Clear
2:53 AM 75.0 °F - 70.0 °F 84% 30.22 in 10.0 mi Calm Calm - N/A   Clear
3:53 AM 72.0 °F - 69.1 °F 91% 30.22 in 10.0 mi Calm Calm - N/A   Clear
4:53 AM 72.0 °F - 69.1 °F 91% 30.22 in 10.0 mi Calm Calm - N/A   Clear
5:53 AM 71.1 °F - 69.1 °F 93% 30.23 in 10.0 mi Calm Calm - N/A   Clear
6:53 AM 73.0 °F - 70.0 °F 90% 30.25 in 10.0 mi NE 4.6 mph - N/A   Clear
7:53 AM 78.1 °F - 71.1 °F 79% 30.27 in 10.0 mi NE 4.6 mph - N/A   Clear
8:53 AM 82.0 °F 86.7 °F 72.0 °F 71% 30.27 in 10.0 mi ENE 6.9 mph - N/A   Clear
9:53 AM 87.1 °F 93.6 °F 72.0 °F 61% 30.26 in 10.0 mi ENE 6.9 mph - N/A   Clear
10:53 AM 87.1 °F 92.0 °F 70.0 °F 57% 30.27 in 10.0 mi East 5.8 mph - N/A   Scattered Clouds
11:53 AM 90.0 °F 94.5 °F 69.1 °F 50% 30.26 in 10.0 mi ESE 8.1 mph - 0.00 in   Partly Cloudy
12:53 PM 90.0 °F 94.5 °F 69.1 °F 50% 30.26 in 10.0 mi East 9.2 mph - 0.00 in   Mostly Cloudy
1:53 PM 91.9 °F 96.9 °F 69.1 °F 47% 30.24 in 10.0 mi East 6.9 mph 16.1 mph N/A   Scattered Clouds
2:53 PM 91.0 °F 95.6 °F 69.1 °F 48% 30.22 in 10.0 mi ENE 5.8 mph - N/A   Scattered Clouds
3:53 PM 93.9 °F 98.6 °F 68.0 °F 43% 30.19 in 10.0 mi East 9.2 mph 19.6 mph N/A   Clear
4:53 PM 93.9 °F 97.5 °F 66.9 °F 41% 30.17 in 10.0 mi East 10.4 mph - N/A   Clear
5:53 PM 93.9 °F 98.6 °F 68.0 °F 43% 30.15 in 10.0 mi ENE 8.1 mph - N/A   Clear
6:53 PM 91.9 °F 95.9 °F 68.0 °F 45% 30.14 in 10.0 mi East 6.9 mph - N/A   Clear
7:53 PM 89.1 °F 95.0 °F 71.1 °F 55% 30.15 in 10.0 mi Calm Calm - N/A   Clear
8:53 PM 82.0 °F 86.3 °F 71.1 °F 69% 30.17 in 10.0 mi Calm Calm - N/A   Clear
9:53 PM 79.0 °F - 71.1 °F 77% 30.18 in 10.0 mi Calm Calm - N/A   Clear
10:53 PM 77.0 °F - 71.1 °F 82% 30.18 in 10.0 mi Calm Calm - N/A   Clear
11:53 PM 75.9 °F - 71.1 °F 85% 30.17 in 10.0 mi Calm Calm - N/A   Clear